1496502000.47,65345,23.0,74194.8,9.79,3.07,2.43,0,*7A
1496502001.66,65346,23.0,74194.0,9.77,2.91,2.27,0,*7B
1496502002.86,65347,23.0,74192.8,9.79,3.03,2.31,0,*79
1496502004.1,65348,23.0,74194.0,9.79,3.07,2.43,0,*77
1496502005.34,65349,23.0,74194.0,9.79,3.15,2.51,0,*76
1496502006.54,65350,23.0,74194.0,9.79,3.33,2.61,0,*79
1496502007.81,65351,23.0,74194.0,9.81,3.07,2.51,0,*7B
1496502009.04,65352,23.0,74192.8,9.81,3.07,2.35,0,*7A
1496502010.21,65353,23.0,74192.0,9.83,2.95,2.35,0,*73
1496502011.41,65354,23.0,74192.5,9.83,2.89,2.27,0,*7A
1496502012.58,65355,23.0,74198.0,9.83,2.95,2.35,0,*75
1496502013.78,65356,23.0,74194.3,9.83,2.89,2.35,0,*7B
1496502014.98,65357,23.0,74192.3,9.83,2.85,2.35,0,*76
1496502016.16,65358,23.0,74194.5,9.83,2.65,2.27,0,*74
1496502017.39,65359,23.0,74194.8,9.87,2.47,2.09,0,*7D
1496502018.62,65360,23.0,74192.8,9.87,2.43,2.05,0,*7F
1496502019.84,65361,23.0,74194.3,9.87,2.05,1.67,0,*7B
1496502021.06,65362,23.0,74192.3,9.85,2.35,2.01,0,*7A
1496502022.32,65363,23.0,74192.8,9.85,2.39,2.13,0,*74
1496502023.54,65364,23.0,74194.0,9.87,2.43,2.21,0,*7D
1496502024.76,65365,23.0,74194.8,9.89,2.55,2.31,0,*74
1496502025.99,65366,23.0,74192.5,9.91,2.47,2.21,0,*7C
1496502027.19,65367,23.0,74194.0,9.91,2.47,2.35,0,*78
1496502028.42,65368,23.0,74194.3,9.93,2.51,2.35,0,*72
1496502029.67,65369,23.0,74198.5,9.93,2.39,2.25,0,*7C
1496502030.92,65370,23.0,74192.3,9.93,2.05,2.05,0,*79
1496502032.14,65371,23.0,74192.3,9.93,2.39,2.35,0,*74
1496502033.38,65372,23.0,74194.5,9.95,2.51,2.43,0,*7E
1496502034.61,65373,23.0,74192.8,9.95,2.55,2.43,0,*7B
1496502035.86,65374,23.0,74192.3,10.01,2.47,2.47,0,*4E
1496502037.04,65375,23.0,74196.5,10.03,2.27,2.27,0,*4D
1496502038.28,65376,23.0,74196.3,10.01,2.21,2.21,0,*4C
1496502039.54,65377,23.0,74194.5,10.01,2.09,2.09,0,*4D
1496502040.79,65378,23.0,74194.0,10.01,2.25,2.25,0,*42
1496502042.03,65379,23.0,74190.0,10.05,2.47,2.51,0,*40
1496502043.27,65380,23.0,74194.0,10.05,2.47,2.47,0,*41
1496502044.49,65381,23.0,74194.0,10.05,2.61,2.51,0,*43
1496502045.72,65382,23.0,74192.3,10.09,2.47,2.47,0,*4F
1496502046.95,65383,23.0,74194.8,10.09,2.09,1.85,0,*49
1496502048.19,65384,23.0,74194.5,10.09,2.43,2.13,0,*4C
1496502049.42,65385,23.0,74194.5,10.09,2.77,2.47,0,*4B
1496502050.68,65386,23.0,74192.0,10.11,2.59,2.25,0,*49
1496502051.91,65387,23.0,74192.5,10.11,2.77,2.31,0,*41
1496502053.11,65388,23.0,74192.3,10.13,2.95,2.47,0,*41
1496502054.31,65389,23.0,74192.5,10.17,2.89,2.31,0,*48
1496502055.55,65390,23.0,74192.5,10.21,3.07,2.47,0,*43
1496502056.76,65391,23.0,74192.0,10.23,3.25,2.65,0,*40
1496502058.01,65392,23.0,74194.3,10.23,3.49,2.77,0,*4A
1496502059.23,65393,23.0,74190.0,10.27,3.55,2.85,0,*4F
1496502060.44,65394,23.0,74194.0,10.29,3.55,2.73,0,*4F
1496502061.66,65395,23.0,74198.0,10.31,3.19,2.27,0,*4E
1496502062.89,65396,23.0,74188.8,10.31,2.99,2.09,0,*48
1496502064.12,65397,23.0,74192.3,10.35,2.95,2.01,0,*49
1496502065.35,65398,23.0,74192.5,10.35,2.85,1.75,0,*47
1496502066.58,65399,23.0,74192.3,10.37,2.65,1.51,0,*4C
1496502067.79,65400,23.0,74196.0,10.39,2.27,1.09,0,*4E
1496502069.02,65401,23.0,74192.0,10.41,2.31,1.09,0,*47
1496502070.28,65402,23.0,74190.5,10.45,2.43,1.25,0,*4B
1496502071.5,65403,23.0,74192.8,10.45,2.35,1.25,0,*4B
1496502072.73,65404,23.0,74192.5,10.45,2.25,1.05,0,*4F
1496502073.95,65405,23.0,74194.3,10.49,1.83,0.71,0,*7F
1496502075.18,65406,23.0,74192.5,10.47,1.67,0.33,0,*7E
1496502076.41,65407,23.0,74194.8,10.49,1.41,0.21,0,*76
1496502077.64,65408,23.0,74194.5,10.49,1.09,0.05,0,*43
1496502078.87,65409,23.0,74194.5,10.53,1.09,0.01,0,*4D
1496502080.04,65410,23.0,74194.0,10.51,0.97,0.05,0,*75
1496502081.27,65411,23.0,74194.3,10.53,0.95,-0.07,0,*5B
1496502082.49,65412,23.0,74194.3,10.53,0.95,-0.03,0,*5C
1496502083.71,65413,23.0,74194.5,10.53,0.75,-0.15,0,*64
1496502084.91,65414,23.0,74192.5,10.55,0.63,-0.19,0,*6E
1496502086.12,65415,23.0,74192.8,10.55,0.33,-0.41,0,*67
1496502087.29,65416,23.0,74194.5,10.55,0.05,-0.53,0,*52
1496502088.5,65417,23.0,74190.5,10.57,-0.11,-0.73,0,*4B
1496502089.73,65418,23.0,74190.0,10.57,-0.23,-0.69,0,*4E
1496502090.94,65419,23.0,74194.5,10.57,-0.29,-0.73,0,*4E
1496502092.16,65420,23.0,74188.5,10.57,-0.57,-0.93,0,*43
1496502093.37,65421,23.0,74192.5,10.59,-0.69,-1.01,0,*7B
1496502094.61,65422,23.0,74192.5,10.61,-1.09,-1.25,0,*42
1496502095.85,65423,23.0,74194.3,10.59,-1.01,-1.05,0,*42
1496502097.09,65424,23.0,74192.3,10.61,-1.21,-1.01,0,*48
1496502098.28,65425,23.0,74190.5,10.59,-1.51,-1.17,0,*42
1496502099.51,65426,23.0,74192.8,10.61,-1.83,-1.59,0,*4F
1496502100.7,65427,23.0,74190.5,10.59,-2.19,-1.79,0,*47
1496502101.93,65428,23.0,74194.3,10.59,-2.11,-1.51,0,*4A
1496502103.12,65429,23.0,74190.3,10.59,-2.27,-1.63,0,*4F
1496502104.32,65430,23.0,74190.0,10.61,-2.39,-1.59,0,*4A
1496502105.54,65431,23.0,74192.0,10.59,-2.55,-1.67,0,*47
1496502106.76,65432,23.0,74192.3,10.59,-2.63,-1.63,0,*45
1496502108.01,65433,23.0,74188.3,10.59,-2.51,-1.39,0,*4A
1496502109.23,65434,23.0,74192.8,10.61,-2.39,-1.13,0,*40
1496502110.46,65435,23.0,74188.5,10.61,-2.39,-1.09,0,*4A
1496502111.69,65436,23.0,74194.3,10.61,-2.39,-0.97,0,*7F
1496502112.87,65437,23.0,74194.3,10.59,-2.43,-0.77,0,*76
1496502114.08,65438,23.0,74190.5,10.61,-2.35,-0.65,0,*70
1496502115.31,65439,23.0,74190.8,10.61,-2.47,-0.53,0,*71
1496502116.54,65440,23.0,74192.5,10.61,-2.51,-0.61,0,*79
1496502117.77,65441,23.0,74194.3,10.61,-2.87,-0.85,0,*79
1496502118.98,65442,23.0,74190.3,10.61,-3.23,-1.21,0,*4A
1496502120.2,65443,23.0,74192.0,10.63,-3.11,-1.01,0,*4A
1496502121.41,65444,23.0,74192.5,10.63,-3.27,-1.13,0,*4B
1496502122.64,65445,23.0,74190.0,10.61,-3.23,-1.09,0,*47
1496502123.91,65446,23.0,74192.3,10.61,-3.63,-1.39,0,*43
1496502125.18,65447,23.0,74192.3,10.61,-3.59,-1.35,0,*47
1496502126.4,65448,23.0,74192.5,10.59,-3.39,-1.01,0,*42
1496502127.61,65449,23.0,74194.3,10.61,-3.23,-0.77,0,*73
1496502128.83,65450,23.0,74194.0,10.61,-3.23,-0.89,0,*7A
1496502130.04,65451,23.0,74190.8,10.59,-3.39,-0.93,0,*70
1496502131.28,65452,23.0,74188.5,10.61,-3.27,-0.85,0,*70
1496502132.52,65453,23.0,74192.0,10.59,-3.51,-1.01,0,*46
1496502133.76,65454,23.0,74190.0,10.59,-3.43,-1.01,0,*42
1496502134.99,65455,23.0,74192.0,10.61,-3.35,-0.97,0,*77
1496502136.2,65456,23.0,74190.8,10.59,-3.35,-0.97,0,*7F
1496502137.46,65457,23.0,74190.5,10.61,-3.51,-1.13,0,*4A
1496502138.7,65458,23.0,74194.5,10.61,-3.39,-0.93,0,*72
1496502139.93,65459,23.0,74192.8,10.59,-3.43,-1.13,0,*4C
1496502141.19,65460,23.0,74192.0,10.61,-3.51,-1.13,0,*4E
1496502142.42,65461,23.0,74190.3,10.59,-3.75,-1.39,0,*4A
1496502143.66,65462,23.0,74188.0,10.61,-3.39,-1.13,0,*42
1496502144.86,65463,23.0,74188.0,10.59,-3.95,-1.75,0,*4E
1496502146.07,65464,23.0,74194.5,10.59,-4.09,-1.91,0,*41
1496502147.33,65465,23.0,74186.8,10.57,-4.01,-1.71,0,*48
1496502148.55,65466,23.0,74190.5,10.57,-3.95,-1.79,0,*49
1496502149.77,65467,23.0,74192.0,10.55,-4.25,-2.03,0,*48
1496502150.99,65468,23.0,74192.5,10.55,-4.37,-2.03,0,*44
1496502152.24,65469,23.0,74190.8,10.57,-3.95,-1.83,0,*43
1496502153.48,65470,23.0,74188.8,10.55,-3.67,-1.43,0,*48
1496502154.7,65471,23.0,74188.5,10.55,-3.47,-1.29,0,*47
1496502155.92,65472,23.0,74192.3,10.55,-4.13,-2.03,0,*49
1496502157.14,65473,23.0,74192.0,10.57,-4.25,-2.15,0,*48
1496502158.36,65474,23.0,74190.3,10.55,-4.25,-2.03,0,*4A
1496502159.55,65475,23.0,74188.0,10.55,-4.49,-2.23,0,*43
1496502160.76,65476,23.0,74194.3,10.53,-4.49,-2.27,0,*42
1496502162.01,65477,23.0,74190.5,10.53,-4.17,-2.07,0,*4A
1496502163.24,65478,23.0,74190.3,10.53,-4.05,-1.95,0,*4E
1496502164.49,65479,23.0,74192.3,10.55,-4.01,-1.95,0,*4D
1496502165.74,65480,23.0,74188.0,10.55,-4.01,-2.03,0,*47
1496502166.95,65481,23.0,74188.5,10.55,-4.37,-2.47,0,*43
1496502168.14,65482,23.0,74194.3,10.55,-4.99,-3.07,0,*41
1496502169.38,65483,23.0,74192.8,10.53,-5.27,-3.39,0,*4F
1496502170.59,65484,23.0,74190.8,10.51,-5.11,-3.39,0,*4F
1496502171.81,65485,23.0,74190.5,10.55,-5.39,-3.59,0,*46
1496502173.06,65486,23.0,74192.0,10.53,-5.31,-3.71,0,*41
1496502174.3,65487,23.0,74194.8,10.51,-5.19,-3.67,0,*4F
1496502175.53,65488,23.0,74192.3,10.53,-4.77,-3.27,0,*4F
1496502176.77,65489,23.0,74192.5,10.51,-5.07,-3.63,0,*4A
1496502178.01,65490,23.0,74190.3,10.53,-5.19,-3.75,0,*48
1496502179.22,65491,23.0,74190.0,10.51,-4.99,-3.67,0,*41
1496502180.43,65492,23.0,74188.5,10.51,-5.11,-3.91,0,*4A
1496502181.62,65493,23.0,74190.8,10.51,-5.35,-4.17,0,*44
1496502182.83,65494,23.0,74188.5,10.53,-5.39,-4.17,0,*4D
1496502184.05,65495,23.0,74190.5,10.51,-5.27,-4.09,0,*4E
1496502185.26,65496,23.0,74192.0,10.51,-5.31,-4.17,0,*45
1496502186.5,65497,23.0,74192.5,10.53,-5.27,-4.13,0,*45
1496502187.72,65498,23.0,74190.0,10.51,-5.61,-4.53,0,*4E
1496502188.94,65499,23.0,74190.0,10.53,-5.47,-4.41,0,*4A
1496502190.16,65500,23.0,74192.5,10.51,-5.97,-4.77,0,*41
1496502191.4,65501,23.0,74188.3,10.53,-6.05,-4.77,0,*4A
1496502192.61,65502,23.0,74188.8,10.51,-5.73,-4.41,0,*4C
1496502193.85,65503,23.0,74192.0,10.53,-5.81,-4.41,0,*42
1496502195.1,65504,23.0,74190.3,10.53,-6.09,-4.77,0,*43
1496502196.31,65505,23.0,74194.3,10.51,-6.27,-4.99,0,*4C
1496502197.55,65506,23.0,74192.3,10.53,-6.59,-5.15,0,*41
1496502198.77,65507,23.0,74192.0,10.53,-6.77,-5.39,0,*42
1496502200.01,65508,23.0,74190.3,10.53,-7.15,-5.73,0,*46
1496502201.25,65509,23.0,74190.3,10.53,-7.01,-5.43,0,*41
1496502202.52,65510,23.0,74192.8,10.53,-7.01,-5.31,0,*4C
1496502203.74,65511,23.0,74190.8,10.53,-7.11,-5.43,0,*49
1496502205.01,65512,23.0,74194.3,10.53,-7.69,-5.93,0,*48
1496502206.23,65513,23.0,74190.0,10.51,-7.83,-5.89,0,*44
1496502207.47,65514,23.0,74188.5,10.53,-7.83,-5.81,0,*49
1496502208.73,65515,23.0,74188.8,10.53,-7.77,-5.73,0,*4E
1496502209.99,65516,23.0,74192.0,10.51,-7.73,-5.61,0,*48
1496502211.25,65517,23.0,74192.0,10.53,-7.77,-5.73,0,*4C
1496502212.49,65518,23.0,74188.3,10.51,-8.03,-5.85,0,*44
1496502213.74,65519,23.0,74192.8,10.53,-8.21,-5.85,0,*47
1496502214.97,65520,23.0,74188.5,10.53,-8.33,-5.81,0,*4A
1496502216.21,65521,23.0,74190.3,10.53,-8.25,-5.73,0,*41
1496502217.43,65522,23.0,74192.3,10.55,-8.33,-5.69,0,*48
1496502218.62,65523,23.0,74190.5,10.55,-8.33,-5.55,0,*46
1496502219.84,65524,23.0,74190.8,10.55,-8.59,-5.81,0,*44
1496502221.07,65525,23.0,74190.0,10.55,-8.71,-5.81,0,*4F
1496502222.33,65526,23.0,74188.8,10.57,-8.81,-5.81,0,*41
1496502223.56,65527,23.0,74192.5,10.55,-8.85,-5.81,0,*46
1496502224.78,65528,23.0,74188.5,10.55,-8.89,-5.77,0,*4C
1496502226.0,65529,23.0,74188.5,10.55,-8.85,-5.69,0,*4E
1496502227.26,65530,23.0,74190.0,10.55,-9.11,-5.69,0,*4A
1496502228.49,65531,23.0,74190.8,10.53,-9.45,-6.05,0,*45
1496502229.73,65532,23.0,74188.3,10.55,-9.53,-5.93,0,*4B
1496502230.98,65533,23.0,74190.3,10.55,-9.41,-5.77,0,*43
1496502232.24,65534,23.0,74192.5,10.53,-9.45,-5.81,0,*4F
1496502233.49,65535,23.0,74192.5,10.53,-9.19,-5.31,0,*4C
1496502234.72,0,23.0,74194.8,10.53,-9.01,-4.93,0,*4C
1496502235.94,1,23.0,74190.3,10.53,-9.27,-5.07,0,*45
1496502237.2,2,23.0,74192.5,10.53,-9.41,-5.15,0,*45
1496502238.42,3,23.0,74192.5,10.53,-9.31,-5.03,0,*44
1496502239.64,4,23.0,74190.0,10.53,-9.31,-4.89,0,*40
1496502240.89,5,23.0,74190.3,10.53,-9.45,-4.93,0,*49
1496502242.09,6,23.0,74188.8,10.53,-9.31,-4.65,0,*40
1496502243.31,7,23.0,74190.0,10.53,-9.41,-4.53,0,*43
1496502244.51,8,23.0,74188.5,10.53,-9.27,-4.37,0,*4E
1496502245.73,9,23.0,74190.3,10.53,-9.41,-4.29,0,*40
1496502246.92,10,23.0,74188.8,10.51,-9.71,-4.57,0,*70
1496502248.12,11,23.0,74190.3,10.51,-9.49,-4.21,0,*7B
1496502249.32,12,23.0,74188.3,10.51,-9.45,-4.17,0,*71
1496502250.52,13,23.0,74188.3,10.51,-9.45,-3.95,0,*7D
1496502251.74,14,23.0,74190.5,10.53,-9.41,-3.83,0,*7B
1496502252.96,15,23.0,74190.0,10.53,-9.45,-3.83,0,*7E
1496502254.18,16,23.0,74190.5,10.51,-9.49,-3.63,0,*7D
1496502255.41,17,23.0,74188.8,10.51,-9.41,-3.59,0,*7D
1496502256.63,18,23.0,74188.3,10.51,-9.45,-3.43,0,*7D
1496502257.8,19,23.0,74192.3,10.51,-9.31,-3.19,0,*70
1496502259.03,20,23.0,74190.3,10.53,-9.15,-2.99,0,*77
1496502260.24,21,23.0,74190.8,10.51,-9.11,-2.91,0,*78
1496502261.44,22,23.0,74190.3,10.53,-9.27,-2.87,0,*7B
1496502262.66,23,23.0,74188.0,10.53,-9.27,-2.75,0,*77
1496502263.87,24,23.0,74190.5,10.53,-8.89,-2.39,0,*7D
1496502265.1,25,23.0,74186.0,10.53,-9.05,-2.47,0,*70
1496502266.28,26,23.0,74188.0,10.51,-9.05,-2.39,0,*78
1496502267.47,27,23.0,74188.5,10.51,-9.05,-2.31,0,*71
1496502268.7,28,23.0,74190.8,10.53,-8.89,-2.11,0,*7B
1496502269.92,29,23.0,74190.0,10.51,-8.81,-2.03,0,*73
1496502271.13,30,23.0,74188.8,10.51,-8.75,-1.87,0,*7F
1496502272.3,31,23.0,74186.5,10.51,-8.63,-1.59,0,*7A
1496502273.48,32,23.0,74188.0,10.51,-8.55,-1.63,0,*75
1496502274.73,33,23.0,74190.5,10.53,-8.51,-1.47,0,*74
1496502275.96,34,23.0,74188.0,10.51,-8.51,-1.35,0,*74
1496502277.16,35,23.0,74188.8,10.53,-8.37,-1.25,0,*76
1496502278.38,36,23.0,74184.0,10.53,-8.33,-1.09,0,*7F
1496502279.6,37,23.0,74190.8,10.53,-8.51,-1.25,0,*74
1496502280.8,38,23.0,74188.3,10.53,-8.63,-1.25,0,*7A
1496502282.02,39,23.0,74190.0,10.53,-8.37,-1.09,0,*74
1496502283.22,40,23.0,74188.3,10.51,-8.41,-1.01,0,*71
1496502284.39,41,23.0,74190.3,10.51,-8.25,-0.81,0,*4B
1496502285.57,42,23.0,74188.3,10.51,-8.37,-0.81,0,*4B
1496502286.76,43,23.0,74188.3,10.51,-7.99,-0.53,0,*4E
1496502287.99,44,23.0,74188.5,10.53,-8.11,-0.49,0,*4F
1496502289.16,45,23.0,74190.8,10.51,-8.25,-0.65,0,*45
1496502290.33,46,23.0,74192.8,10.51,-8.17,-0.53,0,*42
1496502291.53,47,23.0,74188.8,10.51,-7.95,-0.41,0,*45
1496502292.73,48,23.0,74186.5,10.49,-7.87,-0.15,0,*41
1496502293.93,49,23.0,74188.8,10.51,-8.03,-0.49,0,*43
1496502295.13,50,23.0,74188.0,10.47,-7.95,-0.33,0,*41
1496502296.32,51,23.0,74188.8,10.47,-7.77,0.01,0,*50
1496502297.53,52,23.0,74188.0,10.49,-7.69,0.09,0,*5A
1496502298.77,53,23.0,74190.5,10.49,-7.35,0.25,0,*6C
1496502299.99,54,23.0,74188.3,10.47,-7.27,0.41,0,*64
1496502301.19,55,23.0,74188.5,10.47,-7.11,0.55,0,*65
1496502302.38,56,23.0,74188.3,10.47,-7.23,0.51,0,*63
1496502303.6,57,23.0,74190.8,10.47,-6.93,0.79,0,*62
1496502304.81,58,23.0,74190.3,10.47,-6.81,0.91,0,*68
1496502306.0,59,23.0,74190.3,10.47,-6.81,0.87,0,*6E
1496502307.17,60,23.0,74186.8,10.47,-6.47,1.05,0,*55
1496502308.37,61,23.0,74190.0,10.47,-6.39,1.17,0,*5E
1496502309.56,62,23.0,74188.3,10.47,-6.43,1.13,0,*54
1496502310.76,63,23.0,74188.0,10.47,-6.31,1.25,0,*55
1496502311.99,64,23.0,74188.8,10.47,-6.19,1.37,0,*5B
1496502313.21,65,23.0,74190.8,10.47,-5.81,1.59,0,*50
1496502314.42,66,23.0,74190.5,10.47,-5.69,1.59,0,*55
1496502315.64,67,23.0,74188.3,10.47,-5.77,1.51,0,*53
1496502316.84,68,23.0,74186.5,10.47,-5.51,1.67,0,*5D
1496502318.02,69,23.0,74190.8,10.47,-5.51,1.75,0,*5F
1496502319.21,70,23.0,74188.0,10.45,-5.39,1.75,0,*5B
1496502320.45,71,23.0,74190.0,10.45,-5.23,1.89,0,*52
1496502321.68,72,23.0,74188.5,10.45,-5.11,1.97,0,*5F
1496502322.89,73,23.0,74190.3,10.45,-4.99,1.97,0,*5F
1496502324.13,74,23.0,74194.3,10.45,-4.85,2.13,0,*5A
1496502325.34,75,23.0,74190.0,10.47,-4.85,2.09,0,*52
1496502326.58,76,23.0,74188.8,10.45,-4.85,2.01,0,*5B
1496502327.79,77,23.0,74188.0,10.41,-4.61,2.09,0,*5C
1496502329.02,78,23.0,74188.3,10.45,-4.57,2.13,0,*59
1496502330.23,79,23.0,74188.0,10.45,-4.37,2.25,0,*5B
1496502331.44,80,23.0,74192.0,10.45,-4.37,2.25,0,*5D
1496502332.69,81,23.0,74190.8,10.45,-4.01,2.47,0,*5D
1496502333.92,82,23.0,74190.8,10.45,-3.83,2.51,0,*54
1496502335.1,83,23.0,74190.5,10.47,-3.95,2.35,0,*52
1496502336.33,84,23.0,74188.0,10.45,-3.91,2.43,0,*52
1496502337.58,85,23.0,74190.5,10.45,-3.43,2.81,0,*52
1496502338.81,86,23.0,74190.0,10.45,-3.35,2.81,0,*50
1496502340.05,87,23.0,74192.0,10.45,-3.55,2.51,0,*5A
1496502341.3,88,23.0,74188.5,10.45,-3.43,2.47,0,*55
1496502342.54,89,23.0,74188.0,10.45,-3.43,2.51,0,*53
1496502343.77,90,23.0,74190.3,10.41,-3.35,2.59,0,*56
1496502344.97,91,23.0,74190.3,10.41,-3.27,2.65,0,*5B
1496502346.16,92,23.0,74188.5,10.41,-3.23,2.65,0,*5C
1496502347.38,93,23.0,74188.0,10.45,-3.03,2.73,0,*5C
1496502348.6,94,23.0,74190.3,10.41,-2.95,2.69,0,*5A
1496502349.82,95,23.0,74188.8,10.41,-2.83,2.81,0,*5A
1496502351.03,96,23.0,74188.3,10.41,-2.83,2.69,0,*5F
1496502352.25,97,23.0,74192.0,10.41,-2.63,2.91,0,*57
1496502353.47,98,23.0,74188.5,10.45,-2.55,2.91,0,*59
1496502354.72,99,23.0,74188.0,10.41,-2.51,2.77,0,*50
1496502355.89,100,23.0,74190.8,10.39,-2.39,2.95,0,*6C
1496502357.06,101,23.0,74188.0,10.39,-2.39,2.95,0,*6D
1496502358.24,102,23.0,74190.8,10.39,-2.15,2.99,0,*6C
1496502359.41,103,23.0,74188.5,10.39,-2.15,2.99,0,*6D
1496502360.61,104,23.0,74188.8,10.39,-2.23,2.85,0,*62
1496502361.84,105,23.0,74190.0,10.39,-1.99,3.07,0,*6A
1496502363.05,106,23.0,74190.0,10.39,-1.91,2.99,0,*67
1496502364.25,107,23.0,74188.5,10.37,-1.79,2.99,0,*6E
1496502365.47,108,23.0,74184.3,10.37,-1.75,2.89,0,*6C
1496502366.7,109,23.0,74188.8,10.37,-1.75,2.89,0,*6D
1496502367.9,110,23.0,74190.3,10.37,-1.51,2.99,0,*62
1496502369.13,111,23.0,74190.0,10.37,-1.63,2.77,0,*62
1496502370.35,112,23.0,74188.5,10.35,-1.55,2.81,0,*6F
1496502371.52,113,23.0,74190.8,10.33,-1.29,2.95,0,*66
1496502372.73,114,23.0,74190.0,10.35,-1.21,2.95,0,*6F
1496502373.96,115,23.0,74188.0,10.35,-1.29,2.81,0,*63
1496502375.21,116,23.0,74192.5,10.35,-1.09,2.81,0,*62
1496502376.46,117,23.0,74190.3,10.35,-0.97,2.81,0,*55
1496502377.65,118,23.0,74192.5,10.33,-0.57,3.19,0,*50
1496502378.86,119,23.0,74188.0,10.33,-0.23,3.45,0,*5B
1496502380.09,120,23.0,74186.8,10.35,-0.19,3.41,0,*5A
1496502381.31,121,23.0,74188.8,10.35,-0.03,3.33,0,*65
1496502382.54,122,23.0,74188.0,10.35,0.17,3.45,0,*7F
1496502383.75,123,23.0,74188.0,10.35,0.05,3.19,0,*44
1496502384.95,124,23.0,74186.0,10.35,0.09,3.11,0,*47
1496502386.19,125,23.0,74190.8,10.35,0.33,3.33,0,*7F
1496502387.4,126,23.0,74188.3,10.33,0.33,3.41,0,*7F
1496502388.63,127,23.0,74188.5,10.35,0.51,3.23,0,*78
1496502389.87,128,23.0,74190.0,10.35,0.51,3.11,0,*76
1496502391.05,129,23.0,74184.3,10.33,0.67,3.29,0,*7F
1496502392.25,130,23.0,74188.3,10.33,0.75,3.19,0,*77
1496502393.45,131,23.0,74190.3,10.33,0.83,3.19,0,*7F
1496502394.63,132,23.0,74190.3,10.33,0.63,2.91,0,*73
1496502395.84,133,23.0,74190.8,10.33,0.67,2.81,0,*77
1496502397.04,134,23.0,74186.8,10.33,0.63,2.69,0,*72
1496502398.27,135,23.0,74190.3,10.33,1.13,3.07,0,*4C
1496502399.43,136,23.0,74188.5,10.33,1.41,3.29,0,*44
1496502400.66,137,23.0,74190.3,10.33,1.55,3.41,0,*4E
1496502401.87,138,23.0,74190.8,10.33,1.51,3.19,0,*48
1496502403.06,139,23.0,74186.8,10.33,1.25,2.91,0,*4B
1496502404.29,140,23.0,74184.5,10.33,1.29,2.85,0,*4C
1496502405.51,141,23.0,74190.5,10.33,1.17,2.69,0,*42
1496502406.75,142,23.0,74190.0,10.31,1.47,2.89,0,*48
1496502408.0,143,23.0,74190.3,10.31,1.71,3.03,0,*4F
1496502409.25,144,23.0,74188.5,10.31,1.93,3.15,0,*43
1496502410.5,145,23.0,74188.8,10.31,2.09,3.37,0,*42
1496502411.74,146,23.0,74188.5,10.31,1.93,3.07,0,*42
1496502412.99,147,23.0,74186.8,10.31,2.09,3.15,0,*40
1496502414.19,148,23.0,74190.3,10.31,2.27,3.25,0,*40
1496502415.41,149,23.0,74190.8,10.31,2.31,3.19,0,*49
1496502416.61,150,23.0,74188.5,10.31,2.35,3.25,0,*4A
1496502417.8,151,23.0,74188.0,10.29,2.43,3.25,0,*43
1496502419.03,152,23.0,74188.0,10.31,2.47,3.25,0,*4D
1496502420.23,153,23.0,74190.8,10.31,2.65,3.29,0,*40
1496502421.44,154,23.0,74190.0,10.33,2.85,3.45,0,*41
1496502422.65,155,23.0,74188.3,10.33,2.69,3.23,0,*42
1496502423.86,156,23.0,74190.3,10.33,2.69,3.23,0,*41
1496502425.05,157,23.0,74188.0,10.33,2.61,3.07,0,*4E
1496502426.26,158,23.0,74188.3,10.33,2.73,3.11,0,*45
1496502427.48,159,23.0,74188.5,10.33,2.69,3.07,0,*48
1496502428.69,160,23.0,74190.5,10.33,2.81,3.11,0,*43
1496502429.91,161,23.0,74186.0,10.33,2.85,3.07,0,*41
1496502431.13,162,23.0,74190.8,10.33,2.81,3.03,0,*42
1496502432.35,163,23.0,74188.5,10.33,2.81,3.03,0,*43
1496502433.53,164,23.0,74188.5,10.33,2.73,2.91,0,*43
1496502434.72,165,23.0,74188.5,10.33,2.95,3.07,0,*44
1496502435.91,166,23.0,74186.0,10.33,2.85,2.95,0,*4C
1496502437.07,167,23.0,74188.3,10.33,2.91,2.95,0,*48
1496502438.32,168,23.0,74186.8,10.31,2.69,2.81,0,*47
1496502439.52,169,23.0,74188.3,10.31,2.91,2.91,0,*40
1496502440.74,170,23.0,74188.5,10.31,2.91,2.89,0,*41
1496502441.99,171,23.0,74188.3,10.31,2.69,2.81,0,*4F
1496502443.23,172,23.0,74188.0,10.31,2.69,2.69,0,*4A
1496502444.48,173,23.0,74190.0,10.31,2.59,2.55,0,*47
1496502445.72,174,23.0,74190.5,10.31,2.55,2.43,0,*4B
1496502446.92,175,23.0,74190.3,10.31,2.35,2.35,0,*4D
1496502448.17,176,23.0,74190.8,10.31,2.43,2.43,0,*4E
1496502449.39,177,23.0,74188.5,10.29,2.39,2.39,0,*46
1496502450.61,178,23.0,74188.8,10.29,2.39,2.39,0,*49
1496502451.84,179,23.0,74188.3,10.29,2.39,2.43,0,*45
1496502453.03,180,23.0,74188.3,10.27,2.35,2.35,0,*40
1496502454.25,181,23.0,74188.5,10.29,2.43,2.39,0,*42
1496502455.42,182,23.0,74188.0,10.29,2.27,2.27,0,*4C
1496502456.58,183,23.0,74188.3,10.29,2.31,2.31,0,*4D
1496502457.8,184,23.0,74188.0,10.29,2.43,2.43,0,*4A
1496502459.05,185,23.0,74190.3,10.27,2.47,2.59,0,*4A
1496502460.28,186,23.0,74186.3,10.27,2.35,2.39,0,*4A
1496502461.49,187,23.0,74180.8,10.27,2.35,2.47,0,*42
1496502462.71,188,23.0,74188.3,10.27,2.35,2.47,0,*4D
1496502463.96,189,23.0,74188.0,10.27,2.39,2.51,0,*47
1496502465.19,190,23.0,74186.8,10.27,2.35,2.59,0,*4B
1496502466.41,191,23.0,74188.3,10.27,2.27,2.39,0,*4F
1496502467.63,192,23.0,74186.5,10.27,2.13,2.35,0,*47
1496502468.85,193,23.0,74188.5,10.27,2.13,2.35,0,*46
1496502470.09,194,23.0,74190.8,10.27,2.01,2.25,0,*43
1496502471.32,195,23.0,74184.5,10.25,1.97,2.13,0,*49
1496502472.56,196,23.0,74184.3,10.27,1.97,2.25,0,*4D
1496502473.78,197,23.0,74184.5,10.25,1.89,2.13,0,*44
1496502474.97,198,23.0,74184.5,10.25,1.97,2.27,0,*43
1496502476.19,199,23.0,74188.8,10.27,1.79,2.25,0,*42
1496502477.39,200,23.06,74188.5,10.25,1.97,2.35,0,*42
1496502478.6,201,23.0,74186.0,10.27,1.75,2.21,0,*48
1496502479.85,202,23.0,74184.3,10.27,1.55,1.97,0,*47
1496502481.06,203,23.0,74186.8,10.25,1.51,2.01,0,*4C
1496502482.29,204,23.0,74184.3,10.25,1.55,2.09,0,*47
1496502483.51,205,23.0,74184.5,10.25,1.55,2.09,0,*46
1496502484.72,206,23.0,74184.5,10.25,1.63,2.21,0,*4A
1496502485.94,207,23.0,74186.8,10.25,1.55,2.13,0,*4F
1496502487.19,208,23.0,74184.5,10.23,1.47,2.09,0,*4E
1496502488.4,209,23.0,74188.3,10.25,1.43,2.13,0,*46
1496502489.62,210,23.0,74188.0,10.23,1.41,2.05,0,*4D
1496502490.83,211,23.0,74184.5,10.23,0.97,1.59,0,*7C
1496502492.02,212,23.0,74184.3,10.21,1.01,1.71,0,*49
1496502493.19,213,23.0,74186.8,10.21,0.97,1.75,0,*72
1496502494.38,214,23.0,74184.5,10.23,0.97,1.75,0,*77
1496502495.59,215,23.0,74184.8,10.21,1.13,1.83,0,*40
1496502496.78,216,23.0,74184.3,10.21,1.01,1.93,0,*41
1496502498.0,217,23.0,74186.5,10.21,1.13,1.97,0,*47
1496502499.23,218,23.0,74184.3,10.21,1.13,1.93,0,*4C
1496502500.44,219,23.0,74186.8,10.21,0.87,1.63,0,*7E
1496502501.62,220,23.0,74184.3,10.21,0.63,1.41,0,*7E
1496502502.86,221,23.0,74186.5,10.15,0.55,1.33,0,*78
1496502504.08,222,23.0,74186.3,10.15,0.83,1.75,0,*72
1496502505.28,223,23.0,74186.8,10.15,1.01,1.79,0,*44
1496502506.51,224,23.0,74184.5,10.15,0.71,1.67,0,*7A
1496502507.75,225,23.0,74186.8,10.15,0.83,1.63,0,*72
1496502509.0,226,23.0,74186.0,10.15,1.17,1.97,0,*46
1496502510.22,227,23.0,74188.0,10.13,1.17,1.89,0,*4E
1496502511.44,228,23.0,74188.0,10.13,0.95,1.85,0,*76
1496502512.65,229,23.0,74186.0,10.13,1.25,1.97,0,*4E
1496502513.91,230,23.0,74184.0,10.11,1.37,2.05,0,*4F
1496502515.13,231,23.0,74184.3,10.13,1.43,2.25,0,*4D
1496502516.35,232,23.0,74186.3,10.13,1.43,2.25,0,*4E
1496502517.57,233,23.0,74186.0,10.13,1.43,2.17,0,*4E
1496502518.79,234,23.0,74186.8,10.13,1.47,2.13,0,*49
1496502519.98,235,23.0,74186.0,10.13,1.41,2.01,0,*4D
1496502521.2,236,23.0,74184.3,10.11,1.41,1.97,0,*40
1496502522.42,237,23.0,74186.8,10.13,1.43,2.01,0,*4D
1496502523.61,238,23.0,74186.0,10.13,1.05,1.55,0,*42
1496502524.82,239,23.0,74186.0,10.13,1.29,1.79,0,*43
1496502526.04,240,23.0,74186.0,10.13,1.55,1.97,0,*46
1496502527.27,241,23.0,74186.5,10.11,1.29,1.83,0,*4B
1496502528.53,242,23.0,74184.5,10.11,1.37,1.85,0,*41
1496502529.73,243,23.0,74186.0,10.13,1.41,1.85,0,*43
1496502530.96,244,23.0,74186.5,10.11,1.29,1.75,0,*47
1496502532.21,245,23.0,74180.3,10.11,1.25,1.59,0,*44
1496502533.43,246,23.0,74184.8,10.13,0.91,1.33,0,*77
1496502534.62,247,23.0,74186.0,10.09,1.01,1.47,0,*46
1496502535.84,248,23.0,74184.5,10.09,1.13,1.47,0,*4A
1496502537.04,249,23.0,74184.3,10.09,0.97,1.37,0,*71